When you browse on this site, cookies collect data to enhance your experience and personalize the content and advertising you see.
Visit our Privacy Policy to learn more. By continuing to use the site, you agree to this use of cookies and data.
  • In Hungary
  • List of Countries
  • For 7 days
  • Water Temperature
  • Satellite Maps
  • Weather Map
  • News
  • Weather Widgets
  • user-avatar
    Login

    Hourly Weather Zabolote

    Today, 24 January, Thursday

    Time Temperature Precipitation Wind Pressure Humidity
    00:00 -13°C° 0 mm 3 mps 741 mmHg 94%
    01:00 -14°C° 0 mm 3 mps 741 mmHg 95%
    02:00 -13°C° 0 mm 3 mps 741 mmHg 95%
    03:00 -14°C° 0 mm 3 mps 740 mmHg 96%
    04:00 -14°C° 0 mm 3 mps 740 mmHg 96%
    05:00 -15°C° 0 mm 3 mps 740 mmHg 96%
    06:00 -15°C° 0 mm 3 mps 740 mmHg 96%
    07:00 -15°C° 0 mm 3 mps 740 mmHg 96%
    08:00 -15°C° 0 mm 3 mps 739 mmHg 96%
    09:00 -14°C° 0.1 mm 3 mps 740 mmHg 96%
    10:00 -14°C° 0.1 mm 3 mps 740 mmHg 95%
    11:00 -13°C° 0.1 mm 3 mps 740 mmHg 95%
    12:00 -13°C° 0.1 mm 3 mps 740 mmHg 95%
    13:00 -10°C° 0.1 mm 2 mps 740 mmHg 95%
    14:00 -10°C° 0.1 mm 2 mps 741 mmHg 95%
    15:00 -10°C° 0 mm 2 mps 741 mmHg 95%
    16:00 -10°C° 0 mm 2 mps 742 mmHg 94%
    17:00 -12°C° 0 mm 2 mps 743 mmHg 94%
    18:00 -14°C° 0 mm 2 mps 743 mmHg 95%
    19:00 -13°C° 0 mm 1 mps 744 mmHg 96%
    20:00 -15°C° 0 mm 1 mps 744 mmHg 97%
    21:00 -16°C° 0 mm 1 mps 745 mmHg 97%
    22:00 -17°C° 0 mm 1 mps 745 mmHg 97%
    23:00 -18°C° 0 mm 1 mps 746 mmHg 97%

    Tomorrow, 25 January, Friday

    Time Temperature Precipitation Wind Pressure Humidity
    00:00 -18°C° 0 mm 0 mps 746 mmHg 96%
    01:00 -18°C° 0 mm 0 mps 746 mmHg 95%
    02:00 -19°C° 0 mm 0 mps 747 mmHg 94%
    03:00 -19°C° 0 mm 0 mps 747 mmHg 93%
    04:00 -19°C° 0 mm 0 mps 747 mmHg 92%
    05:00 -19°C° 0 mm 0 mps 747 mmHg 91%
    06:00 -19°C° 0 mm 0 mps 748 mmHg 90%
    07:00 -19°C° 0 mm 0 mps 748 mmHg 90%
    08:00 -19°C° 0 mm 1 mps 748 mmHg 89%
    09:00 -17°C° 0 mm 1 mps 748 mmHg 88%
    10:00 -15°C° 0 mm 1 mps 749 mmHg 88%
    11:00 -14°C° 0 mm 1 mps 749 mmHg 87%
    12:00 -13°C° 0 mm 1 mps 749 mmHg 88%
    13:00 -12°C° 0 mm 1 mps 749 mmHg 89%
    14:00 -12°C° 0 mm 1 mps 749 mmHg 89%
    15:00 -12°C° 0 mm 1 mps 749 mmHg 89%
    16:00 -13°C° 0 mm 1 mps 748 mmHg 89%
    17:00 -16°C° 0 mm 2 mps 748 mmHg 89%
    18:00 -16°C° 0 mm 2 mps 748 mmHg 89%
    19:00 -16°C° 0 mm 2 mps 748 mmHg 88%
    20:00 -16°C° 0 mm 2 mps 747 mmHg 88%
    21:00 -15°C° 0 mm 2 mps 747 mmHg 87%
    22:00 -16°C° 0 mm 3 mps 747 mmHg 86%
    23:00 -16°C° 0 mm 3 mps 746 mmHg 85%

    Day after tomorrow, 26 January, Saturday

    Time Temperature Precipitation Wind Pressure Humidity
    00:00 -16°C° 0 mm 3 mps 746 mmHg 85%
    01:00 -16°C° 0 mm 3 mps 745 mmHg 86%
    02:00 -16°C° 0 mm 3 mps 744 mmHg 86%
    03:00 -16°C° 0 mm 3 mps 743 mmHg 85%
    04:00 -17°C° 0 mm 4 mps 743 mmHg 84%
    05:00 -17°C° 0 mm 4 mps 742 mmHg 83%
    06:00 -17°C° 0 mm 4 mps 741 mmHg 84%
    07:00 -17°C° 0 mm 4 mps 740 mmHg 85%
    08:00 -17°C° 0 mm 4 mps 739 mmHg 85%
    09:00 -17°C° 0.2 mm 4 mps 738 mmHg 88%
    10:00 -17°C° 0.2 mm 4 mps 737 mmHg 90%
    11:00 -17°C° 0.2 mm 4 mps 737 mmHg 92%
    12:00 -17°C° 0.3 mm 4 mps 736 mmHg 92%
    13:00 -16°C° 0.3 mm 3 mps 735 mmHg 92%
    14:00 -16°C° 0.3 mm 3 mps 735 mmHg 93%
    15:00 -16°C° 0.2 mm 3 mps 734 mmHg 93%
    16:00 -16°C° 0.2 mm 3 mps 734 mmHg 93%
    17:00 -15°C° 0.2 mm 2 mps 733 mmHg 94%
    18:00 -15°C° 0.1 mm 2 mps 733 mmHg 94%
    19:00 -15°C° 0.1 mm 2 mps 732 mmHg 94%
    20:00 -15°C° 0.1 mm 2 mps 732 mmHg 95%
    21:00 -13°C° 0.1 mm 1 mps 732 mmHg 95%
    22:00 -13°C° 0.1 mm 1 mps 731 mmHg 96%
    23:00 -13°C° 0.1 mm 1 mps 731 mmHg 97%

    27 January, Sunday

    Time Temperature Precipitation Wind Pressure Humidity
    00:00 -13°C° 0.1 mm 1 mps 731 mmHg 97%
    01:00 -13°C° 0.1 mm 1 mps 731 mmHg 97%
    02:00 -13°C° 0.1 mm 1 mps 730 mmHg 97%
    03:00 -13°C° 0.1 mm 1 mps 730 mmHg 97%
    04:00 -13°C° 0.1 mm 0 mps 730 mmHg 97%
    05:00 -13°C° 0.1 mm 0 mps 730 mmHg 97%
    06:00 -13°C° 0.1 mm 0 mps 729 mmHg 97%
    07:00 -14°C° 0.1 mm 0 mps 729 mmHg 97%
    08:00 -14°C° 0.1 mm 1 mps 729 mmHg 97%
    09:00 -14°C° 0 mm 1 mps 729 mmHg 97%
    10:00 -13°C° 0 mm 1 mps 729 mmHg 96%
    11:00 -13°C° 0 mm 1 mps 729 mmHg 96%
    12:00 -12°C° 0 mm 1 mps 729 mmHg 96%
    13:00 -14°C° 0 mm 2 mps 729 mmHg 95%
    14:00 -14°C° 0 mm 2 mps 729 mmHg 94%
    15:00 -15°C° 0 mm 2 mps 730 mmHg 95%
    16:00 -16°C° 0 mm 2 mps 730 mmHg 96%
    17:00 -17°C° 0 mm 2 mps 730 mmHg 97%
    18:00 -18°C° 0 mm 2 mps 730 mmHg 98%
    19:00 -18°C° 0 mm 2 mps 730 mmHg 98%
    20:00 -19°C° 0 mm 2 mps 731 mmHg 98%
    21:00 -19°C° 0 mm 2 mps 731 mmHg 98%
    22:00 -19°C° 0 mm 2 mps 731 mmHg 98%
    23:00 -20°C° 0 mm 2 mps 732 mmHg 98%

    28 January, Monday

    Time Temperature Precipitation Wind Pressure Humidity
    00:00 -20°C° 0 mm 2 mps 732 mmHg 98%
    01:00 -20°C° 0 mm 2 mps 733 mmHg 98%
    02:00 -21°C° 0 mm 2 mps 733 mmHg 98%
    03:00 -21°C° 0 mm 2 mps 733 mmHg 98%
    04:00 -21°C° 0 mm 2 mps 734 mmHg 99%
    05:00 -23°C° 0 mm 2 mps 734 mmHg 99%
    06:00 -23°C° 0 mm 2 mps 734 mmHg 99%
    07:00 -23°C° 0 mm 2 mps 735 mmHg 99%
    08:00 -20°C° 0 mm 1 mps 735 mmHg 99%
    09:00 -19°C° 0 mm 1 mps 736 mmHg 98%
    10:00 -18°C° 0 mm 1 mps 736 mmHg 97%
    11:00 -16°C° 0 mm 1 mps 737 mmHg 96%
    12:00 -16°C° 0 mm 1 mps 737 mmHg 95%
    13:00 -15°C° 0 mm 0 mps 737 mmHg 94%
    14:00 -14°C° 0 mm 0 mps 737 mmHg 93%
    15:00 -15°C° 0 mm 0 mps 737 mmHg 95%
    16:00 -17°C° 0 mm 0 mps 737 mmHg 96%
    17:00 -19°C° 0 mm 1 mps 737 mmHg 97%
    18:00 -18°C° 0 mm 1 mps 737 mmHg 97%
    19:00 -20°C° 0 mm 2 mps 737 mmHg 96%
    20:00 -20°C° 0 mm 2 mps 737 mmHg 95%
    21:00 -20°C° 0 mm 2 mps 737 mmHg 94%
    22:00 -22°C° 0 mm 3 mps 736 mmHg 93%
    23:00 -21°C° 0 mm 3 mps 736 mmHg 92%

    29 January, Tuesday

    Time Temperature Precipitation Wind Pressure Humidity
    00:00 -21°C° 0 mm 3 mps 736 mmHg 90%
    01:00 -20°C° 0 mm 4 mps 736 mmHg 89%
    02:00 -19°C° 0 mm 4 mps 735 mmHg 87%
    03:00 -19°C° 0.1 mm 4 mps 735 mmHg 87%
    04:00 -18°C° 0.1 mm 4 mps 734 mmHg 87%
    05:00 -17°C° 0.1 mm 4 mps 734 mmHg 87%
    06:00 -16°C° 0.3 mm 4 mps 733 mmHg 89%
    07:00 -16°C° 0.3 mm 4 mps 733 mmHg 91%
    08:00 -15°C° 0.3 mm 4 mps 732 mmHg 93%
    09:00 -15°C° 0.1 mm 4 mps 732 mmHg 93%
    10:00 -14°C° 0.1 mm 4 mps 732 mmHg 94%
    11:00 -12°C° 0.1 mm 4 mps 731 mmHg 94%
    12:00 -13°C° 0.2 mm 5 mps 731 mmHg 93%
    13:00 -12°C° 0.2 mm 5 mps 730 mmHg 93%
    14:00 -11°C° 0.2 mm 5 mps 729 mmHg 93%
    15:00 -8°C° 0.5 mm 5 mps 729 mmHg 93%
    16:00 -7°C° 0.5 mm 5 mps 729 mmHg 92%
    17:00 -5°C° 0.5 mm 5 mps 729 mmHg 92%
    18:00 -4°C° 0.3 mm 4 mps 728 mmHg 92%
    19:00 -3°C° 0.3 mm 4 mps 728 mmHg 92%
    20:00 -2°C° 0.3 mm 4 mps 728 mmHg 92%
    21:00 -2°C° 0.1 mm 4 mps 728 mmHg 92%
    22:00 -1°C° 0.1 mm 4 mps 728 mmHg 92%
    23:00 -1°C° 0.1 mm 4 mps 728 mmHg 92%
    Show more